Retour au catalogue

BREEZE-M R/B

ActifHEO
NORAD 31864·ROCKET BODY·🇷🇺 Russia

Lancé Jul 7, 2007 depuis Baikonur Cosmodrome

Loading…

Prochains Passages (prochaines 24 heures)

TLE

FraisSource: Space-Track

Époque: Sep 10, 2026, 17:31 UTC

1 31864U 07032C   26253.72999752  .00000014  00000-0  00000-0 0  9997
2 31864  21.7870 347.4926 5762721  43.5733 323.4664  2.01213301140858

Suivez BREEZE-M R/B en temps réel avec AllMySat

Download on the App Store